This is the latest recevied weather packets stored in our database for station/object KM4KMS. If no packets are shown the sender has not sent any weather packets the latest 10 day(s).
| Time | Temp. | Humidity | Pressure | Rain* | Wind** | Luminosity | Snow |
|---|---|---|---|---|---|---|---|
| 1788136136 | 81° F | 77% | 762.9 mmHg | 0 in | - | 0 W/m² | - |
| 1788135835 | 81° F | 75% | 763 mmHg | 0 in | - | 0 W/m² | - |
| 1788135531 | 81° F | 75% | 762.8 mmHg | 0 in | - | 0 W/m² | - |
| 1788135226 | 81° F | 77% | 762.7 mmHg | 0 in | - | 1 W/m² | - |
| 1788134923 | 81° F | 76% | 762.7 mmHg | 0 in | - | 3 W/m² | - |
| 1788134618 | 83° F | 77% | 762.8 mmHg | 0 in | - | 6 W/m² | - |
| 1788134316 | 84° F | 76% | 762.7 mmHg | 0 in | - | 10 W/m² | - |
| 1788134011 | 84° F | 72% | 762.7 mmHg | 0 in | - | 15 W/m² | - |
| 1788133707 | 86° F | 69% | 762.8 mmHg | 0 in | - | 19 W/m² | - |
| 1788133403 | 86° F | 66% | 762.6 mmHg | 0 in | - | 22 W/m² | - |
| 1788133098 | 86° F | 67% | 762.7 mmHg | 0 in | - | 25 W/m² | - |
| 1788132794 | 88° F | 62% | 762.9 mmHg | 0 in | - | 33 W/m² | - |
| 1788132489 | 87° F | 64% | 762.9 mmHg | 0 in | - | 38 W/m² | - |
| 1788132184 | 87° F | 64% | 762.6 mmHg | 0 in | - | 43 W/m² | - |
| 1788131880 | 87° F | 64% | 762.7 mmHg | 0 in | - | 58 W/m² | - |
| 1788131575 | 88° F | 64% | 762.7 mmHg | 0 in | - | 63 W/m² | - |
| 1788131270 | 89° F | 62% | 762.7 mmHg | 0 in | - | 54 W/m² | - |
| 1788130965 | 89° F | 61% | 762.7 mmHg | 0 in | - | 47 W/m² | - |
| 1788130664 | 89° F | 61% | 762.7 mmHg | 0 in | - | 89 W/m² | - |
| 1788130360 | 89° F | 62% | 762.5 mmHg | 0 in | - | 105 W/m² | - |
| 1788130058 | 90° F | 60% | 762.6 mmHg | 0 in | - | 112 W/m² | - |
| 1788129754 | 89° F | 61% | 762.7 mmHg | 0 in | - | 119 W/m² | - |
| 1788129451 | 90° F | 59% | 762.7 mmHg | 0 in | - | 139 W/m² | - |
| 1788129146 | 91° F | 56% | 762.8 mmHg | 0 in | - | 140 W/m² | - |
| 1788128841 | 91° F | 56% | 762.8 mmHg | 0 in | - | 165 W/m² | - |
* Rain latest hour (hover to see other rain measurements)
** Current wind speed in m/s (hover to see current wind gust speed)